Weather in Cadiz

Spain     36˚31′41″N   6˚17′20″W
temp.,
°C
wind,
m/s
gust,
m/s
humid.,
%
clouds,
%
prec.,
mm/h
press.,
hPa
HPBL,
m
28 november, sat
sat2801:00+14˚wnw347499 0.3 1007517
04:00+13˚nw137535 0.0 1007505
07:00+13˚wnw247847 0.0 1008475
10:00+15˚wnw457483 0.0 1009790
13:00+17˚wsw566669 0.1 10101110
16:00+17˚sw5672100 0.3 1009835
19:00+16˚sw5876100 0.8 1009674
22:00+15˚ssw6986100 1.4 1011439
29 november, sun
sun2901:00+16˚ssw6984100 3.4 1010596
04:00+16˚nw4583100 3.4 1011383
07:00+15˚s118596 4.0 1011121
10:00+16˚se798699 2.7 1014450
13:00+16˚sse688179 6.6 1014748
16:00+17˚s677790 1.1 1013801
19:00+16˚se467995 2.5 1014426
22:00+15˚ese7128056 0.1 1015367
30 november, mon
mon3001:00+15˚ese6118450 0.1 1016497
04:00+15˚ese61384100 0.0 1016601
07:00+15˚ese71386100 0.0 1016555
10:00+15˚ese7147984 0.0 1017712
13:00+18˚ese8127292 0.0 10181083
16:00+18˚ese71173100 0.0 10171011
19:00+16˚ese7118093 0.0 1018519
22:00+15˚ese5982100 0.0 1020490
1 december, tue
tue101:00+15˚e3784100 0.0 1020372
04:00+15˚ene5780100 0.0 1020280
07:00+14˚ene4579100 0.0 1020180
10:00+16˚ene347197 0.0 1021180
13:00+19˚ene346350 0.0 1020427
16:00+20˚e34660 0.0 1018444
19:00+17˚e33790 0.0 101981
22:00+15˚e33800 0.0 102092
2 december, wed
wed201:00+15˚ene23760 0.0 101970
04:00+14˚ne44770 0.0 1018115
07:00+13˚ne45780 0.0 1017121
10:00+14˚nne34710 0.0 1017149
13:00+18˚n45590 0.0 1016358
16:00+19˚n46610 0.0 1013346
19:00+16˚n585915 0.0 1014261
22:00+15˚nne595699 0.0 1014251